This demonstration page uses our WeatherBlox Daily Observations layout. Learn more.

Left ArrowRight Arrow

Hourly Observations for December 9, 2016

Temp ( °F °C ) Dew Point ( °F °C ) Humidity (%) Winds ( mph kmh ) Pressure ( in mb ) Visibility ( mi km ) Precip ( " mm )
12:53 am 00:53 Mostly Cloudy -2 -18.9 -6 -21.1 83 83 NE 5 7 30.65 1038 10 16 0.00 0.00
1:53 am 01:53 Cloudy -1 -18.3 -5 -20.6 82 82 NE 6 9 30.64 1038 10 16 0.00 0.00
2:53 am 02:53 Cloudy 1 -17.2 -4 -20 79 79 ENE 10 17 30.63 1037 10 16 0.00 0.00
3:53 am 03:53 Cloudy 1 -17.2 -3 -19.4 83 83 ENE 10 17 30.63 1037 9 14 0.00 0.00
4:53 am 04:53 Cloudy 1 -17.2 -4 -20 79 79 ENE 13 20 30.62 1037 10 16 0.00 0.00
5:53 am 05:53 Cloudy 0 -17.8 -5 -20.6 79 79 ENE 10 17 30.62 1037 10 16 0.00 0.00
6:53 am 06:53 Cloudy 0 -17.8 -5 -20.6 79 79 ENE 13 20 30.62 1037 10 16 0.00 0.00
7:53 am 07:53 Cloudy -1 -18.3 -5 -20.6 82 82 ENE 10 17 30.62 1037 10 16 0.00 0.00
8:53 am 08:53 Cloudy 0 -17.8 -5 -20.6 79 79 E 12 19 30.62 1037 10 16 0.00 0.00
9:53 am 09:53 Cloudy 2 -16.7 -4 -20 76 76 E 8 13 30.62 1037 10 16 0.00 0.00
10:53 am 10:53 Cloudy with Haze 4 -15.6 -3 -19.4 73 73 ESE 7 11 30.60 1036 6 10 0.00 0.00
11:53 am 11:53 Cloudy 5 -15 -2 -18.9 72 72 E 6 9 30.58 1035 10 16 0.00 0.00
12:53 pm 12:53 Partly Cloudy 5 -15 -2 -18.9 72 72 E 8 13 30.54 1034 10 16 0.00 0.00
1:53 pm 13:53 Mostly Sunny 7 -13.9 -2 -18.9 66 66 E 9 15 30.51 1033 10 16 0.00 0.00
2:53 pm 14:53 Mostly Cloudy 7 -13.9 -2 -18.9 66 66 E 8 13 30.50 1033 10 16 0.00 0.00
3:53 pm 15:53 Cloudy 5 -15 -2 -18.9 72 72 E 10 17 30.48 1032 10 16 0.00 0.00
4:53 pm 16:53 Cloudy 5 -15 -1 -18.3 76 76 E 14 22 30.47 1032 10 16 0.00 0.00
5:53 pm 17:53 Cloudy 4 -15.6 -1 -18.3 80 80 E 12 19 30.45 1031 9 14 0.00 0.03
6:53 pm 18:53 Cloudy with Haze 4 -15.6 -1 -18.3 80 80 E 12 19 30.42 1030 6 10 0.00 0.00
7:53 pm 19:53 Cloudy 3 -16.1 -2 -18.9 79 79 E 10 17 30.40 1029 8 13 0.00 0.00
8:53 pm 20:53 Cloudy 3 -16.1 -2 -18.9 79 79 E 9 15 30.37 1028 10 16 0.00 0.00
9:53 pm 21:53 Cloudy 3 -16.1 -2 -18.9 79 79 ENE 9 15 30.35 1028 10 16 0.00 0.00
10:53 pm 22:53 Cloudy 2 -16.7 -3 -19.4 80 80 ENE 9 15 30.32 1027 10 16 0.00 0.00
11:53 pm 23:53 Cloudy 2 -16.7 -2 -18.9 83 83 ENE 10 17 30.28 1026 10 16 0.00 0.00

Powered by AerisWeather